Date String (YYYY-MM-DD hh:mm:ss) UTC,Instrument flags,Ambient pressure (hPa),Sample flow (lpm),Bypass flow (lpm),Sample temperature (°C),Ambient temperature (°C),ASC tube jacket temperature (°C),LED temperature (°C),Box temperature (°C),Sample RH (%),Span deviation,Mass concentration (μg/m³),Mass concentration (μg/m³),Mass concentration (μg/m³)
DateTimeUTC,F1_M11,P_M11,Q1_M11,Q2_M11,T1_M11,T2_M11,T3_M11,T4_M11,T5_M11,U1_M11,ZSPAN_M11,X2_M11,X0_M11,X1_M11
2022-11-27 17:00:00,,0821.1,5.00,0.00,22.6,21.1,00.0,31.6,24.4,20.2,0000.0,0007.04,0011.70,0006.55
2022-11-27 17:01:00,,0821.1,5.00,0.00,22.6,21.1,00.0,31.6,24.4,20.0,0000.0,0007.06,0011.78,0006.55
2022-11-27 17:02:00,,0821.1,5.00,0.00,22.6,21.1,00.0,31.6,24.4,20.2,0000.0,0007.05,0011.49,0006.58
2022-11-27 17:03:00,,0821.1,5.00,0.00,22.6,21.1,00.0,31.5,24.4,19.7,0000.0,0007.11,0011.31,0006.65
2022-11-27 17:04:00,,0821.1,4.99,0.00,22.5,21.0,00.0,31.5,24.4,19.6,0000.0,0007.21,0011.38,0006.73
2022-11-27 17:05:00,,0821.1,5.00,0.00,22.5,21.0,00.0,31.5,24.4,19.2,0000.0,0007.25,0011.35,0006.80
2022-11-27 17:06:00,,0821.1,5.00,0.00,22.5,21.0,00.0,31.5,24.4,19.5,0000.0,0007.32,0011.47,0006.86
2022-11-27 17:07:00,,0821.2,5.00,0.00,22.5,21.0,00.0,31.5,24.3,19.6,0000.0,0007.41,0011.56,0006.93
2022-11-27 17:08:00,,0821.2,5.01,0.00,22.5,21.0,00.0,31.5,24.4,19.4,0000.0,0007.53,0011.37,0007.03
2022-11-27 17:09:00,,0821.1,5.00,0.00,22.5,21.0,00.0,31.5,24.4,19.2,0000.0,0007.68,0011.61,0007.14
2022-11-27 17:10:00,,0821.1,5.00,0.00,22.5,21.0,00.0,31.5,24.3,19.2,0000.1,0007.80,0011.30,0007.25
2022-11-27 17:11:00,,0821.1,5.00,0.00,22.5,21.0,00.0,31.5,24.3,19.0,-000.2,0007.91,0011.19,0007.35
2022-11-27 17:12:00,,0821.1,5.00,0.00,22.5,21.0,00.0,31.5,24.3,19.2,0000.0,0008.00,0011.24,0007.47
2022-11-27 17:13:00,,0821.1,5.00,0.00,22.4,21.0,00.0,31.5,24.3,19.2,-000.1,0008.07,0011.29,0007.54
2022-11-27 17:14:00,,0821.1,5.00,0.00,22.5,21.0,00.0,31.5,24.3,19.2,-000.0,0008.13,0011.58,0007.62
2022-11-27 17:15:00,,0821.0,5.00,0.00,22.5,21.0,00.0,31.5,24.3,19.0,-000.1,0008.17,0012.04,0007.67
2022-11-27 17:16:00,,0821.0,5.00,0.00,22.5,21.1,00.0,31.4,24.3,19.1,-000.0,0008.25,0012.14,0007.73
2022-11-27 17:17:00,,0821.0,5.00,0.00,22.4,21.1,00.0,31.4,24.3,19.1,-000.2,0008.30,0012.21,0007.78
2022-11-27 17:18:00,,0820.9,5.01,0.00,22.4,21.1,00.0,31.4,24.3,19.2,0000.3,0008.34,0012.29,0007.82
2022-11-27 17:19:00,,0820.9,5.00,0.00,22.5,21.1,00.0,31.4,24.3,19.2,0000.6,0008.39,0012.67,0007.86
2022-11-27 17:20:00,,0820.9,5.00,0.00,22.5,21.1,00.0,31.4,24.4,19.2,0000.4,0008.42,0013.23,0007.89
2022-11-27 17:21:00,,0820.9,5.00,0.00,22.5,21.2,00.0,31.4,24.4,19.2,0000.3,0008.47,0014.15,0007.92
2022-11-27 17:22:00,,0820.9,5.00,0.00,22.5,21.2,00.0,31.4,24.4,19.2,0000.2,0008.55,0014.39,0007.99
2022-11-27 17:23:00,,0820.9,5.00,0.00,22.5,21.3,00.0,31.4,24.4,19.5,-000.1,0008.61,0014.52,0008.03
2022-11-27 17:24:00,,0820.9,5.00,0.00,22.5,21.3,00.0,31.4,24.5,19.6,-000.0,0008.67,0014.96,0008.09
2022-11-27 17:25:00,,0820.9,5.00,0.00,22.6,21.4,00.0,31.4,24.5,20.0,-000.3,0008.78,0015.57,0008.15
2022-11-27 17:26:00,,0820.9,5.01,0.00,22.5,21.2,00.0,31.4,24.4,19.5,-000.1,0008.89,0015.25,0008.22
2022-11-27 17:27:00,,0820.9,5.00,0.00,22.5,21.1,00.0,31.5,24.4,19.4,-000.2,0008.98,0015.27,0008.30
2022-11-27 17:28:00,,0820.9,5.00,0.00,22.5,21.1,00.0,31.5,24.3,19.6,-000.2,0009.08,0015.76,0008.37
2022-11-27 17:29:00,,0820.8,5.00,0.00,22.5,21.2,00.0,31.5,24.4,19.9,-000.8,0009.14,0016.12,0008.43
2022-11-27 17:30:00,,0820.8,5.00,0.00,22.5,21.2,00.0,31.4,24.4,20.2,-001.2,0009.20,0015.85,0008.46
2022-11-27 17:31:00,,0820.8,5.00,0.00,22.5,21.2,00.0,31.5,24.4,20.0,-001.0,0009.25,0015.30,0008.49
2022-11-27 17:32:00,,0820.8,5.00,0.00,22.5,21.1,00.0,31.5,24.4,19.6,-001.2,0009.29,0014.61,0008.54
2022-11-27 17:33:00,,0820.8,5.00,0.00,22.5,21.1,00.0,31.5,24.3,19.7,-001.3,0009.28,0014.30,0008.55
2022-11-27 17:34:00,,0820.8,4.99,0.00,22.5,21.1,00.0,31.4,24.3,19.6,-001.2,0009.32,0014.68,0008.57
2022-11-27 17:35:00,,0820.8,5.01,0.00,22.5,21.1,00.0,31.4,24.3,19.5,-001.8,0009.34,0014.39,0008.59
2022-11-27 17:36:00,,0820.8,5.00,0.00,22.5,21.1,00.0,31.4,24.4,19.5,-001.5,0009.29,0013.72,0008.58
2022-11-27 17:37:00,,0820.8,5.00,0.00,22.5,21.2,00.0,31.4,24.4,19.6,-001.6,0009.26,0013.69,0008.58
2022-11-27 17:38:00,,0820.8,5.00,0.00,22.5,21.3,00.0,31.4,24.5,19.8,-001.2,0009.21,0013.62,0008.54
2022-11-27 17:39:00,,0820.8,5.00,0.00,22.6,21.4,00.0,31.4,24.5,19.7,-001.0,0009.17,0013.15,0008.53
2022-11-27 17:40:00,,0820.7,4.99,0.00,22.6,21.4,00.0,31.4,24.6,19.9,-000.7,0009.12,0012.91,0008.53
2022-11-27 17:41:00,,0820.7,5.00,0.00,22.6,21.5,00.0,31.5,24.6,19.6,-000.7,0009.05,0012.79,0008.51
2022-11-27 17:42:00,,0820.7,4.99,0.00,22.6,21.5,00.0,31.5,24.6,19.6,-000.6,0009.00,0012.75,0008.49
2022-11-27 17:43:00,,0820.7,5.02,0.00,22.6,21.6,00.0,31.5,24.6,19.7,-000.3,0009.00,0012.80,0008.49
2022-11-27 17:44:00,,0820.7,4.98,0.00,22.7,21.6,00.0,31.5,24.6,19.7,0000.1,0009.01,0012.87,0008.51
2022-11-27 17:45:00,,0820.7,5.01,0.00,22.7,21.6,00.0,31.5,24.6,19.8,0000.5,0008.98,0012.95,0008.51
2022-11-27 17:46:00,,0820.6,5.01,0.00,22.7,21.6,00.0,31.5,24.7,19.5,0000.8,0009.02,0013.03,0008.52
2022-11-27 17:47:00,,0820.6,5.00,0.00,22.7,21.6,00.0,31.5,24.7,19.3,0000.7,0009.04,0013.07,0008.52
2022-11-27 17:48:00,,0820.6,4.99,0.00,22.7,21.7,00.0,31.6,24.7,19.4,0000.7,0009.02,0013.00,0008.51
2022-11-27 17:49:00,,0820.6,5.01,0.00,22.8,21.7,00.0,31.6,24.7,19.6,0000.7,0009.02,0012.98,0008.52
2022-11-27 17:50:00,,0820.6,5.00,0.00,22.8,21.7,00.0,31.6,24.8,19.6,0000.9,0009.03,0013.04,0008.51
2022-11-27 17:51:00,,0820.6,4.99,0.00,22.8,21.7,00.0,31.6,24.8,19.5,0000.8,0009.05,0012.90,0008.53
2022-11-27 17:52:00,,0820.5,5.00,0.00,22.8,21.7,00.0,31.6,24.8,19.6,0000.8,0009.11,0013.08,0008.55
2022-11-27 17:53:00,,0820.6,4.98,0.00,22.8,21.8,00.0,31.6,24.8,19.9,0000.5,0009.15,0013.67,0008.56
2022-11-27 17:54:00,,0820.5,5.03,0.00,22.9,21.8,00.0,31.6,24.9,20.1,-000.0,0009.13,0013.57,0008.56
2022-11-27 17:55:00,,0820.5,5.00,0.00,22.9,21.8,00.0,31.7,24.9,20.0,-000.5,0009.12,0013.48,0008.57
2022-11-27 17:56:00,,0820.5,5.00,0.00,22.9,21.8,00.0,31.7,24.9,19.9,-000.6,0009.14,0013.07,0008.59
2022-11-27 17:57:00,,0820.5,5.02,0.00,22.9,21.8,00.0,31.7,24.9,19.8,-000.6,0009.10,0012.94,0008.59
2022-11-27 17:58:00,,0820.4,4.99,0.00,22.9,21.8,00.0,31.7,24.9,20.0,-000.5,0009.10,0013.07,0008.60
2022-11-27 17:59:00,,0820.4,4.99,0.00,22.9,21.8,00.0,31.7,24.9,19.8,-000.1,0009.14,0013.16,0008.61
